�N����,����,�~����,�C��,���x,�C��,����,���ϕ���,�ő�u�ԕ���,�ő厞����,���˗�,�I�_���x,�n�����x,�ő啗���N��,DTYPE
"21/10/14","00:10",0.0,19.1,83.9,1014.9,280.2,0.5,0.9,318.4,0.00,16.4,22.6,"00:00:48",1
"21/10/14","00:20",0.0,19.1,84.9,1015.2,271.6,1.0,2.0,331.3,0.00,16.5,22.5,"00:19:52",1
"21/10/14","00:30",0.0,19.1,85.3,1015.2,283.4,1.0,1.4,324.4,0.00,16.6,22.6,"00:21:12",1
"21/10/14","00:40",0.0,18.8,85.9,1014.7,314.9,0.6,1.4,335.1,0.00,16.4,22.6,"00:32:48",1
"21/10/14","00:50",0.0,18.5,86.2,1014.9,299.1,0.7,1.2,316.7,0.00,16.2,22.5,"00:47:36",1
"21/10/14","01:00",0.0,18.4,86.9,1015.2,279.0,0.8,1.6,244.7,0.00,16.2,22.6,"00:56:16",1
"21/10/14","01:10",0.0,18.4,87.6,1015.4,333.0,1.2,2.1,342.6,0.00,16.3,22.6,"01:04:16",1
"21/10/14","01:20",0.0,18.5,88.1,1015.2,311.7,1.1,2.2,323.3,0.00,16.5,22.3,"01:14:08",1
"21/10/14","01:30",0.0,18.6,88.4,1014.7,311.1,0.5,1.4,315.8,0.00,16.7,22.6,"01:20:40",1
"21/10/14","01:40",0.0,18.4,88.6,1014.9,271.1,0.6,1.3,298.5,0.00,16.5,22.4,"01:32:00",1
"21/10/14","01:50",0.0,18.2,89.0,1014.7,310.0,0.8,1.3,315.8,0.00,16.4,22.4,"01:49:44",1
"21/10/14","02:00",0.0,18.3,89.3,1014.9,317.8,1.3,2.7,337.4,0.00,16.5,22.3,"01:55:12",1
"21/10/14","02:10",0.0,18.4,89.4,1014.7,331.7,1.1,2.0,336.9,0.00,16.7,22.2,"02:04:40",1
"21/10/14","02:20",0.0,18.2,89.6,1014.9,305.5,0.8,1.3,323.1,0.00,16.5,22.2,"02:15:04",1
"21/10/14","02:30",0.0,18.2,89.8,1014.7,303.1,0.6,1.1,315.2,0.00,16.5,22.4,"02:21:44",1
"21/10/14","02:40",0.0,18.1,89.9,1014.9,319.6,0.6,1.1,309.3,0.00,16.5,22.1,"02:31:36",1
"21/10/14","02:50",0.0,17.9,90.2,1014.7,260.1,0.6,1.8,249.1,0.00,16.3,22.1,"02:49:28",1
"21/10/14","03:00",0.0,18.4,90.3,1014.7,248.0,1.2,1.9,240.9,0.00,16.8,22.2,"02:54:24",1
"21/10/14","03:10",0.0,18.4,90.2,1014.2,234.4,0.5,1.1,300.8,0.00,16.8,22.2,"03:00:32",1
"21/10/14","03:20",0.0,18.4,90.3,1014.7,251.5,0.7,1.2,247.1,0.00,16.8,22.1,"03:17:04",1
"21/10/14","03:30",0.0,18.5,90.2,1014.2,273.1,0.8,1.3,307.0,0.00,16.9,22.1,"03:27:36",1
"21/10/14","03:40",0.0,18.4,90.2,1014.5,302.5,0.6,2.0,341.6,0.00,16.8,22.2,"03:37:20",1
"21/10/14","03:50",0.0,18.3,90.2,1014.2,313.1,0.3,1.1,292.8,0.00,16.7,22.1,"03:40:08",1
"21/10/14","04:00",0.0,18.2,90.1,1014.2,271.7,0.5,1.2,265.7,0.00,16.6,21.9,"03:56:16",1
"21/10/14","04:10",0.0,18.0,90.3,1014.2,318.6,0.7,1.8,333.1,0.00,16.4,21.9,"04:08:08",1
"21/10/14","04:20",0.0,17.9,90.2,1014.5,294.4,0.7,1.1,313.1,0.00,16.3,22.0,"04:12:40",1
"21/10/14","04:30",0.0,17.6,90.3,1014.2,282.6,0.7,1.2,320.4,0.00,16.0,21.9,"04:21:12",1
"21/10/14","04:40",0.0,17.8,90.4,1014.2,279.5,1.0,2.5,326.3,0.00,16.2,22.1,"04:39:20",1
"21/10/14","04:50",0.0,18.1,90.3,1014.5,318.6,1.7,2.7,337.8,0.00,16.5,22.0,"04:48:40",1
"21/10/14","05:00",0.0,18.3,90.1,1014.5,307.4,1.6,2.7,313.0,0.00,16.7,22.1,"04:56:08",1
"21/10/14","05:10",0.0,18.4,89.8,1014.5,308.2,1.2,3.2,325.8,0.00,16.7,21.8,"05:02:48",1
"21/10/14","05:20",0.0,18.0,89.7,1014.7,271.9,0.7,1.2,243.3,0.00,16.3,21.7,"05:12:32",1
"21/10/14","05:30",0.0,17.6,89.7,1014.7,307.2,0.3,0.9,302.3,0.00,15.9,21.9,"05:28:16",1
"21/10/14","05:40",0.0,17.2,90.0,1014.2,315.3,1.1,1.7,329.9,0.00,15.6,21.7,"05:38:24",1
"21/10/14","05:50",0.0,17.2,90.3,1014.7,334.9,1.2,2.5,332.3,0.00,15.6,21.7,"05:43:28",1
"21/10/14","06:00",0.0,16.8,90.5,1015.2,315.0,1.1,2.0,326.8,0.00,15.3,21.9,"05:51:44",1
"21/10/14","06:10",0.0,16.9,90.8,1015.2,320.7,1.1,1.8,313.7,0.00,15.4,21.7,"06:07:04",1
"21/10/14","06:20",0.0,16.7,91.0,1015.2,302.3,0.8,1.2,312.0,0.00,15.3,21.8,"06:11:12",1
"21/10/14","06:30",0.0,16.7,91.3,1015.2,296.7,0.5,1.2,317.5,0.00,15.3,21.7,"06:28:56",1
"21/10/14","06:40",0.0,16.7,91.4,1015.2,305.8,1.0,1.4,334.5,0.00,15.3,21.6,"06:38:32",1
"21/10/14","06:50",0.0,16.9,91.8,1014.9,329.3,1.3,2.4,336.1,0.00,15.6,21.5,"06:45:28",1
"21/10/14","07:00",0.0,17.4,92.1,1015.2,333.4,1.0,1.6,330.9,0.01,16.1,21.6,"06:50:16",1
"21/10/14","07:10",0.0,17.9,92.2,1015.2,334.1,1.0,2.0,332.1,0.02,16.7,21.5,"07:09:52",1
"21/10/14","07:20",0.0,18.4,92.1,1015.4,333.0,1.6,2.4,330.4,0.04,17.1,21.6,"07:10:02",1
"21/10/14","07:30",0.0,18.8,91.4,1015.4,332.1,2.1,3.7,336.3,0.04,17.4,21.6,"07:27:52",1
"21/10/14","07:40",0.0,19.5,90.3,1015.4,324.2,2.1,2.9,334.1,0.06,17.9,21.6,"07:33:44",1
"21/10/14","07:50",0.0,20.1,88.8,1015.4,326.0,1.5,2.9,344.7,0.08,18.2,21.6,"07:40:56",1
"21/10/14","08:00",0.0,20.7,86.7,1014.7,327.6,1.5,3.4,337.9,0.10,18.4,21.5,"07:57:36",1
"21/10/14","08:10",0.0,21.2,83.4,1015.2,321.9,1.2,2.6,350.6,0.12,18.3,21.4,"08:04:24",1
"21/10/14","08:20",0.0,21.7,80.5,1014.9,315.8,1.5,3.2,343.6,0.15,18.2,21.4,"08:10:16",1
"21/10/14","08:30",0.0,21.9,78.2,1015.2,281.0,1.1,2.2,261.8,0.18,18.0,21.5,"08:25:28",1
"21/10/14","08:40",0.0,22.3,76.1,1014.5,273.4,1.2,2.9,257.0,0.17,17.9,21.4,"08:30:32",1
"21/10/14","08:50",0.0,22.0,75.3,1014.5,313.2,0.7,3.9,236.0,0.06,17.5,21.4,"08:44:16",1
"21/10/14","09:00",0.0,21.9,75.5,1014.5,313.2,0.5,1.6,236.1,0.08,17.4,21.6,"08:55:44",1
"21/10/14","09:10",0.0,22.5,74.9,1014.5,0.6,0.3,1.1,341.0,0.13,17.9,21.7,"09:07:20",1
"21/10/14","09:20",0.0,23.3,71.6,1014.5,326.5,0.7,1.8,324.6,0.26,17.9,21.4,"09:17:36",1
"21/10/14","09:30",0.0,23.8,68.4,1014.0,16.9,1.0,2.4,351.1,0.29,17.7,21.7,"09:28:24",1
"21/10/14","09:40",0.0,24.4,65.8,1014.0,97.8,1.0,2.7,117.3,0.33,17.6,21.7,"09:36:00",1
"21/10/14","09:50",0.0,25.1,64.0,1013.8,17.1,0.7,1.9,353.6,0.43,17.9,21.6,"09:42:40",1
"21/10/14","10:00",0.0,25.3,62.1,1013.0,41.7,1.5,4.4,117.1,0.48,17.6,21.7,"09:52:32",1
"21/10/14","10:10",0.0,23.9,62.5,1013.5,328.3,1.3,4.7,345.8,0.12,16.3,21.8,"10:00:40",1
"21/10/14","10:20",0.0,23.2,64.9,1013.3,5.5,1.2,2.8,344.5,0.10,16.3,21.7,"10:12:08",1
"21/10/14","10:30",0.0,24.8,65.2,1012.8,332.6,1.3,3.1,357.0,0.45,17.9,21.8,"10:21:36",1
"21/10/14","10:40",0.0,25.3,64.6,1012.3,299.8,1.1,3.7,232.9,0.50,18.2,21.9,"10:38:48",1
"21/10/14","10:50",0.0,25.1,61.3,1012.6,330.7,1.7,4.5,331.9,0.37,17.2,21.9,"10:42:08",1
"21/10/14","11:00",0.0,25.9,60.1,1011.9,327.6,1.2,3.2,348.8,0.51,17.6,22.1,"10:54:32",1
"21/10/14","11:10",0.0,26.3,56.7,1012.3,2.8,1.3,2.9,14.3,0.54,17.1,22.2,"11:05:36",1
"21/10/14","11:20",0.0,25.6,58.4,1012.1,311.8,1.2,3.4,344.7,0.28,16.9,22.4,"11:14:32",1
"21/10/14","11:30",0.0,24.5,58.7,1011.9,319.2,0.8,2.1,4.3,0.11,15.9,22.0,"11:26:24",1
"21/10/14","11:40",0.0,26.3,56.7,1011.6,138.2,0.7,2.0,61.5,0.58,17.1,22.4,"11:39:20",1
"21/10/14","11:50",0.0,26.0,56.8,1012.1,276.0,1.1,2.8,238.6,0.24,16.8,22.2,"11:45:44",1
"21/10/14","12:00",0.0,25.1,57.4,1011.4,340.3,1.8,4.2,350.1,0.23,16.1,22.3,"11:55:20",1
"21/10/14","12:10",0.0,26.0,56.1,1011.4,323.6,1.2,3.5,345.1,0.53,16.6,22.4,"12:08:16",1
"21/10/14","12:20",0.0,26.3,55.5,1011.6,305.9,1.1,3.9,353.4,0.39,16.7,22.3,"12:19:44",1
"21/10/14","12:30",0.0,25.4,57.9,1011.4,338.2,1.8,3.9,349.7,0.28,16.6,22.5,"12:26:48",1
"21/10/14","12:40",0.0,25.8,58.0,1010.9,350.1,1.3,2.6,355.5,0.36,17.0,22.5,"12:32:40",1
"21/10/14","12:50",0.0,26.4,55.5,1011.2,344.0,1.1,3.4,333.0,0.39,16.8,22.6,"12:40:24",1
"21/10/14","13:00",0.0,27.2,56.7,1011.4,244.5,1.3,3.2,227.2,0.58,17.9,22.6,"12:56:16",1
"21/10/14","13:10",0.0,27.0,54.6,1010.7,244.9,1.3,3.7,205.7,0.46,17.1,22.7,"13:02:32",1
"21/10/14","13:20",0.0,27.4,52.4,1011.4,342.9,1.6,4.4,334.6,0.59,16.8,22.7,"13:18:56",1
"21/10/14","13:30",0.0,26.9,53.6,1010.7,2.4,1.6,2.7,5.1,0.41,16.7,22.7,"13:22:00",1
"21/10/14","13:40",0.0,26.4,53.2,1010.4,1.7,1.3,3.2,352.0,0.28,16.2,22.9,"13:31:28",1
"21/10/14","13:50",0.0,26.1,53.5,1010.2,7.2,1.2,3.4,349.1,0.32,16.0,23.2,"13:42:00",1
"21/10/14","14:00",0.0,26.1,54.5,1010.0,13.0,1.2,2.4,344.5,0.26,16.3,23.0,"13:56:08",1
"21/10/14","14:10",0.0,26.1,55.9,1009.5,355.3,1.3,3.1,339.0,0.27,16.7,22.9,"14:07:04",1
"21/10/14","14:20",0.0,26.2,57.4,1009.0,339.0,1.7,3.9,346.7,0.29,17.2,23.2,"14:14:56",1
"21/10/14","14:30",0.0,26.0,55.6,1009.5,344.9,1.8,4.2,342.9,0.28,16.5,23.0,"14:21:28",1
"21/10/14","14:40",0.0,26.5,55.5,1009.0,0.1,1.6,4.3,27.4,0.36,16.9,23.2,"14:38:24",1
"21/10/14","14:50",0.0,26.9,52.9,1009.3,354.1,2.2,4.1,0.8,0.39,16.5,23.2,"14:49:44",1
"21/10/14","15:00",0.0,26.9,50.2,1009.0,1.3,1.7,5.0,350.2,0.34,15.7,23.2,"14:51:36",1
"21/10/14","15:10",0.0,26.7,49.5,1008.8,339.3,1.7,3.6,23.4,0.28,15.3,23.4,"15:03:28",1
"21/10/14","15:20",0.0,26.8,48.6,1008.8,266.6,1.3,3.4,268.7,0.25,15.1,23.2,"15:17:36",1
"21/10/14","15:30",0.0,26.9,46.5,1009.0,287.2,1.3,3.1,339.8,0.23,14.5,23.4,"15:28:08",1
"21/10/14","15:40",0.0,26.7,47.0,1008.8,276.5,1.2,2.8,251.5,0.20,14.5,23.2,"15:32:16",1
"21/10/14","15:50",0.0,26.7,47.2,1009.3,253.4,1.5,3.4,240.6,0.16,14.6,23.5,"15:44:00",1
"21/10/14","16:00",0.0,25.7,50.0,1008.8,294.5,1.3,3.1,321.1,0.07,14.5,23.3,"15:56:24",1
"21/10/14","16:10",0.0,25.3,51.5,1009.0,304.5,1.2,3.5,345.7,0.06,14.6,23.4,"16:00:08",1
"21/10/14","16:20",0.0,24.9,51.5,1008.8,285.5,1.3,2.6,237.6,0.05,14.3,23.5,"16:12:08",1
"21/10/14","16:30",0.0,24.5,52.2,1009.5,289.6,1.1,2.9,327.7,0.03,14.1,23.6,"16:22:56",1
"21/10/14","16:40",0.0,24.4,54.9,1009.7,338.0,1.0,2.0,342.6,0.02,14.8,23.3,"16:36:48",1
"21/10/14","16:50",0.0,23.9,56.6,1009.3,332.2,1.1,2.2,343.2,0.02,14.8,23.3,"16:43:28",1
"21/10/14","17:00",0.0,23.9,57.4,1009.7,318.0,1.0,2.0,320.0,0.01,15.0,23.3,"16:52:56",1
"21/10/14","17:10",0.0,23.4,57.6,1010.0,326.5,1.6,2.6,340.0,0.00,14.6,23.3,"17:02:40",1
"21/10/14","17:20",0.0,22.7,60.2,1010.0,332.9,1.3,2.5,337.2,0.00,14.6,23.2,"17:18:00",1
"21/10/14","17:30",0.0,22.1,62.5,1010.2,335.5,1.5,2.5,337.0,0.00,14.6,23.2,"17:22:00",1
"21/10/14","17:40",0.0,22.1,65.6,1010.0,346.2,1.8,4.8,352.1,0.00,15.4,23.2,"17:32:40",1
"21/10/14","17:50",0.0,21.8,67.3,1010.2,345.5,2.0,4.4,348.7,0.00,15.5,23.2,"17:46:56",1
"21/10/14","18:00",0.0,21.4,68.6,1010.0,340.4,1.8,4.3,342.8,0.00,15.4,23.2,"17:55:04",1
"21/10/14","18:10",0.0,21.2,69.8,1010.2,338.6,1.7,3.3,348.7,0.00,15.5,23.1,"18:06:24",1
"21/10/14","18:20",0.0,20.9,71.0,1010.4,332.6,1.7,3.7,341.0,0.00,15.5,23.2,"18:12:24",1
"21/10/14","18:30",0.0,20.7,72.2,1010.7,319.3,1.1,3.2,344.7,0.00,15.6,23.1,"18:21:12",1
"21/10/14","18:40",0.0,20.4,73.8,1010.9,160.5,0.5,1.7,147.1,0.00,15.6,23.1,"18:33:04",1
"21/10/14","18:50",0.0,20.0,74.8,1010.9,218.5,0.3,1.1,315.1,0.00,15.4,22.9,"18:49:44",1
"21/10/14","19:00",0.0,19.8,75.7,1011.2,270.4,0.7,1.3,245.2,0.00,15.4,23.1,"18:57:04",1
"21/10/14","19:10",0.0,19.7,76.5,1011.4,293.5,0.7,1.3,258.7,0.00,15.5,23.0,"19:07:28",1
"21/10/14","19:20",0.0,19.4,77.0,1011.6,298.8,0.8,1.4,238.0,0.00,15.3,22.9,"19:11:52",1
"21/10/14","19:30",0.0,19.1,77.7,1011.6,277.6,0.8,1.7,333.7,0.00,15.2,22.8,"19:29:44",1
"21/10/14","19:40",0.0,18.9,78.3,1011.9,305.2,0.7,1.2,308.0,0.00,15.1,22.8,"19:32:40",1
"21/10/14","19:50",0.0,18.8,79.2,1011.6,301.7,1.0,1.8,302.4,0.00,15.2,22.8,"19:43:44",1
"21/10/14","20:00",0.0,18.5,80.1,1011.6,298.5,1.0,1.7,327.4,0.00,15.0,22.8,"19:57:36",1
"21/10/14","20:10",0.0,18.4,81.1,1011.6,313.5,1.1,2.0,337.2,0.00,15.1,22.7,"20:06:48",1
"21/10/14","20:20",0.0,18.5,81.6,1011.6,307.2,1.2,2.4,330.2,0.00,15.3,22.7,"20:11:52",1
"21/10/14","20:30",0.0,18.5,81.7,1011.6,329.8,1.5,2.8,338.7,0.00,15.4,22.5,"20:24:00",1
"21/10/14","20:40",0.0,18.3,81.9,1011.6,339.3,0.8,1.7,348.0,0.00,15.2,22.4,"20:30:40",1
"21/10/14","20:50",0.0,18.0,82.3,1011.9,338.5,1.0,1.8,320.2,0.00,15.0,22.5,"20:47:04",1
"21/10/14","21:00",0.0,17.9,83.0,1011.9,336.4,1.5,2.2,344.2,0.00,15.0,22.5,"20:57:44",1
"21/10/14","21:10",0.0,17.9,83.6,1012.1,331.1,1.8,2.5,337.8,0.00,15.1,22.3,"21:02:56",1
"21/10/14","21:20",0.0,18.1,83.8,1012.1,327.8,2.1,2.9,327.0,0.00,15.4,22.3,"21:10:08",1
"21/10/14","21:30",0.0,18.0,83.7,1012.1,333.4,1.3,3.5,326.6,0.00,15.2,22.4,"21:24:00",1
"21/10/14","21:40",0.0,17.6,84.0,1011.9,318.2,1.2,2.5,338.2,0.00,14.9,22.3,"21:39:52",1
"21/10/14","21:50",0.0,17.4,84.7,1012.3,324.9,1.5,2.6,344.6,0.00,14.8,22.5,"21:47:52",1
"21/10/14","22:00",0.0,17.4,85.2,1012.3,328.0,1.7,2.7,327.1,0.00,14.9,22.2,"21:54:56",1
"21/10/14","22:10",0.0,17.4,85.6,1012.6,329.3,1.7,2.8,338.9,0.00,15.0,22.2,"22:08:24",1
"21/10/14","22:20",0.0,17.4,85.6,1012.3,322.1,2.1,3.4,315.8,0.00,15.0,22.3,"22:10:24",1
"21/10/14","22:30",0.0,17.4,85.6,1012.1,310.6,1.6,3.2,330.2,0.00,15.0,21.9,"22:24:56",1
"21/10/14","22:40",0.0,17.2,85.6,1012.6,290.9,1.1,2.0,318.7,0.00,14.8,22.1,"22:30:08",1
"21/10/14","22:50",0.0,16.9,85.8,1012.6,283.5,1.0,2.1,333.2,0.00,14.5,21.9,"22:41:52",1
"21/10/14","23:00",0.0,16.8,86.1,1012.3,281.0,1.0,1.6,266.1,0.00,14.5,22.1,"22:54:08",1
"21/10/14","23:10",0.0,16.7,86.4,1012.3,300.5,1.1,2.4,325.8,0.00,14.5,22.0,"23:09:04",1
"21/10/14","23:20",0.0,16.9,86.6,1011.9,331.5,2.2,3.9,326.1,0.00,14.7,21.9,"23:12:56",1
"21/10/14","23:30",0.0,16.9,86.6,1012.1,330.4,1.8,3.5,322.2,0.00,14.7,21.9,"23:20:24",1
"21/10/14","23:40",0.0,16.9,86.6,1012.1,322.3,2.0,3.6,330.6,0.00,14.7,21.8,"23:39:20",1
"21/10/14","23:50",0.0,17.0,86.3,1012.1,323.7,2.0,3.4,340.4,0.00,14.7,21.8,"23:41:52",1
"21/10/14","24:00",0.0,16.9,86.3,1011.9,332.6,1.5,2.6,327.9,0.00,14.6,21.7,"23:50:16",1
